User: anonymous   Login
Location: Caltech
(34.1382°N, 118.1253°W)
Time: 11:13:14
(UTC-08:00)
Language:

Gurwin Techsat 1B - Orbit

View from above orbital plane
View from above orbital plane
View from above satellite
View from above satellite

Ground track
Ground track

The orbit data is extracted from the following two-line orbital elements,

1 25397U 98043D   17017.50726666 -.00000006  00000-0  16175-4 0  9995
2 25397  98.5941 323.1536 0002389  82.5064 277.6387 14.23612942962353
Epoch (UTC): 17 January 2017 12:10:27
Eccentricity: 0.0002389
inclination: 98.5941°
perigee height: 811 km
apogee height: 815 km
right ascension of ascending node: 323.1536°
argument of perigee: 82.5064°
revolutions per day: 14.23612942
mean anomaly at epoch: 277.6387°
orbit number at epoch: 96235

The dashed part of the orbit path shows where the satellite is in the earth's shadow,  

DLR